Wind_Speed
38 35 33 34 34 34 33 33 33 35 36 38 37 38 37 35 36 35 35 34 35 36 35 34 33 32 33 33 33 34 35 36 35 34 36 38 38 35 33 34 34 35 33 27
39 34 33 32 32 33 32 33 33 34 35 36 37 36 36 35 36 38 37 35 34 35 34 36 34 33 33 34 34 36 38 36 38 38 39 41 39 37 33 33 37 33 37 27
38 35 34 35 35 36 35 35 33 33 35 37 37 36 35 35 37 38 38 37 35 35 36 38 37 36 35 34 35 37 39 38 41 41 42 42 39 38 35 36 38 35 37 30
35 36 35 37 37 37 36 35 35 35 35 35 35 36 37 36 36 37 37 37 36 34 37 37 38 38 37 36 35 37 37 38 43 45 45 41 39 38 36 35 35 40 35 34
40 37 36 36 36 33 31 32 34 35 36 35 36 37 37 37 38 38 38 39 38 36 38 37 35 37 37 36 39 38 39 40 43 45 44 40 39 39 38 35 33 33 36 35
39 36 31 30 30 30 32 33 35 34 33 34 36 37 38 40 42 40 39 39 37 37 37 38 38 36 35 38 38 39 41 44 46 46 47 46 39 38 39 34 29 29 30 30
36 35 32 30 32 32 32 33 33 34 34 36 38 38 39 41 40 41 39 39 38 38 37 38 39 37 38 38 40 41 43 44 47 47 47 44 42 39 38 34 30 29 31 31
35 31 32 33 28 28 31 33 37 40 37 36 38 38 36 37 38 38 36 36 38 40 39 37 38 36 36 38 41 43 44 46 47 47 45 41 34 31 29 31 29 28 27 27
35 32 32 33 34 33 35 40 39 39 40 39 38 38 38 36 36 39 38 39 40 39 38 39 38 36 37 41 43 44 46 47 47 44 41 40 34 31 28 30 31 28 30 29
46 36 37 40 40 37 39 42 41 41 44 41 38 35 35 34 34 36 38 39 37 37 38 39 38 38 38 41 44 46 45 45 43 40 40 36 31 30 28 30 30 29 30 28
44 41 44 47 45 40 42 49 50 50 50 45 41 37 36 35 37 39 42 39 36 38 38 38 39 39 41 43 45 44 41 43 43 42 40 37 35 34 35 34 32 31 32 31
46 50 53 52 41 43 46 55 53 54 53 44 43 38 35 36 36 38 40 38 38 39 40 41 41 42 43 44 44 40 39 44 43 42 40 37 38 38 38 38 36 33 32 34
50 53 52 55 45 49 51 54 57 52 49 49 45 37 39 34 35 39 38 39 39 38 38 39 42 43 45 44 41 37 40 46 46 45 38 41 39 41 42 43 40 38 37 37
60 52 48 52 48 53 51 54 55 54 48 48 42 36 38 37 38 39 38 38 38 38 39 42 44 44 44 43 40 39 46 46 45 45 46 43 39 41 41 41 41 40 39 39
65 65 68 68 64 63 67 60 62 53 40 39 41 42 39 40 39 38 37 37 37 39 40 42 43 42 44 42 42 45 47 47 47 46 47 48 40 37 43 41 38 39 42 40
63 66 67 72 66 60 54 56 57 44 43 40 38 37 39 41 39 38 36 38 39 40 40 41 41 43 43 42 44 48 49 50 51 48 42 38 36 33 34 33 34 32 34 39
61 63 62 58 54 54 56 50 43 40 39 36 40 40 41 40 36 35 35 39 39 40 39 41 42 42 43 43 45 47 49 49 48 47 43 34 35 28 30 32 26 26 24 24
62 59 58 57 56 56 49 44 35 36 38 38 39 39 37 36 34 33 36 39 39 39 38 40 41 43 45 44 46 47 48 45 40 38 37 37 23 25 30 32 31 29 28 27
57 58 61 61 59 57 49 41 37 40 37 37 38 37 38 36 34 35 36 37 37 38 38 39 42 45 44 44 45 47 46 43 39 34 37 39 35 32 33 28 28 26 25 29
53 54 54 57 58 59 56 48 43 41 40 38 38 36 35 34 33 34 35 36 37 37 39 42 44 44 43 45 44 42 39 36 36 34 36 38 39 37 30 29 28 26 25 27
48 47 45 48 48 44 42 42 41 39 36 35 32 31 31 31 32 33 34 36 37 38 41 43 43 43 41 39 38 36 33 32 35 38 39 39 33 29 27 32 34 35 34 31
37 36 37 37 36 38 39 40 37 33 31 30 27 28 28 29 31 34 35 37 39 41 41 42 42 41 38 34 32 29 29 31 32 32 31 27 25 27 31 36 39 41 42 37
37 40 38 37 37 37 37 31 26 27 27 27 26 26 28 30 32 35 38 38 38 40 41 40 40 39 35 31 25 26 29 30 30 27 27 26 29 31 33 31 28 29 30 27
35 36 36 36 30 27 23 22 21 22 23 25 26 28 29 33 35 36 36 37 40 41 40 38 36 35 30 24 23 25 27 28 27 24 24 24 22 23 19 13 14 12 6 3
26 27 24 23 23 21 18 18 19 22 25 27 29 31 32 34 36 37 38 40 40 40 38 35 32 29 25 20 21 23 24 24 21 23 24 19 18 15 10 9 11 12 9 4
19 20 21 20 19 17 17 20 23 25 28 30 32 34 35 36 37 38 38 39 39 36 34 31 27 24 20 18 18 19 18 17 19 20 19 17 13 11 7 5 3 4 3 3
17 16 16 15 16 17 20 23 26 28 31 34 36 36 36 38 38 38 37 36 35 31 26 24 22 21 17 15 16 14 14 13 15 17 17 12 8 7 8 9 8 6 4 6
Wind_Direction
279 280 285 288 290 294 296 297 297 300 303 306 308 309 307 307 310 312 310 312 312 309 309 313 313 309 306 308 310 308 309 309 314 316 312 309 311 309 304 298 296 293 295 299
277 278 281 283 286 290 293 295 297 300 303 306 306 307 306 307 307 309 310 309 307 306 307 310 310 311 307 305 308 308 306 308 309 312 308 308 310 309 302 296 291 294 287 298
275 278 278 281 286 289 292 292 294 297 300 301 303 303 302 304 305 307 308 309 309 310 308 309 312 312 310 306 304 305 304 307 307 311 308 308 310 306 302 294 291 290 288 290
275 277 279 283 286 288 291 294 295 298 298 300 301 302 304 306 309 309 309 307 306 306 307 309 312 310 306 304 302 302 301 304 303 306 307 308 307 302 295 291 289 287 295 286
271 273 277 283 285 287 289 293 295 294 295 295 296 299 299 302 305 308 307 306 307 307 305 307 304 305 304 302 302 301 300 304 303 304 305 305 303 297 296 295 290 291 286 287
269 271 275 280 281 283 288 290 292 294 293 292 294 297 298 300 300 302 301 302 303 303 305 307 305 304 301 300 299 300 303 304 303 306 304 304 301 298 297 299 291 283 279 279
260 270 274 276 280 282 284 287 286 290 291 292 294 297 298 298 302 301 300 301 301 304 306 308 303 301 301 300 299 302 302 302 302 304 304 302 302 302 299 294 291 282 278 279
261 262 266 273 277 276 276 281 286 289 295 296 289 293 298 298 297 298 299 298 296 299 303 301 300 299 299 297 299 301 302 304 303 303 304 303 302 300 292 289 290 284 281 281
251 261 266 263 271 272 285 282 287 290 293 291 290 290 293 301 302 299 299 298 297 300 301 303 301 301 301 301 303 303 302 305 303 301 303 300 302 302 297 291 287 287 282 282
263 267 269 267 273 282 281 282 282 287 292 289 287 293 295 296 301 304 302 300 301 300 301 301 300 302 302 301 303 303 305 305 301 298 297 298 300 300 293 288 292 288 286 280
265 265 264 263 265 278 278 288 287 288 292 290 288 295 296 294 300 301 301 297 297 299 300 300 301 302 302 304 304 304 305 301 300 299 299 304 304 298 293 291 290 286 281 279
267 269 265 269 275 272 276 282 291 292 289 283 287 294 295 302 302 299 299 299 299 300 299 301 301 301 303 303 304 303 301 298 297 299 301 302 296 296 292 289 285 283 279 277
262 266 256 263 268 272 273 281 284 290 287 286 289 292 295 294 296 294 292 292 292 298 302 301 301 301 303 304 303 302 298 295 300 300 298 299 295 289 289 286 282 279 278 278
252 259 253 257 255 264 268 274 284 290 283 288 293 294 294 295 296 292 291 291 297 302 302 302 301 302 303 304 306 301 295 298 298 298 299 299 295 290 288 286 284 279 275 270
247 252 256 255 269 271 276 274 277 279 281 292 298 297 293 298 292 288 289 292 298 300 302 302 302 302 304 307 304 298 301 299 299 299 298 298 298 296 294 291 285 279 275 270
249 252 255 258 263 265 269 271 272 273 287 293 288 289 293 289 287 285 290 296 299 300 301 302 302 303 305 305 303 302 303 303 301 299 297 299 298 294 292 292 290 286 279 274
250 250 254 255 258 262 272 272 272 283 290 283 289 290 287 283 283 287 293 295 296 298 301 302 303 304 305 306 304 303 303 301 298 300 303 304 299 301 300 299 295 289 281 274
249 251 250 253 256 262 267 274 279 275 278 279 283 283 281 282 285 289 293 294 297 300 301 301 305 305 305 305 304 303 301 297 295 303 305 305 293 296 303 296 282 275 274 268
248 249 252 255 256 263 273 277 272 279 280 282 282 281 279 280 284 290 292 295 297 300 301 303 304 303 305 305 305 302 298 297 302 303 298 300 303 303 299 294 293 291 287 272
248 250 253 256 259 265 272 276 276 275 277 277 274 274 275 283 289 291 293 296 297 299 300 303 304 305 306 306 305 297 294 300 304 302 301 301 302 302 291 293 292 297 299 296
248 249 257 261 264 266 264 266 268 268 267 265 265 272 282 286 288 291 292 295 296 297 300 303 306 305 304 302 295 293 301 305 306 308 308 309 304 296 282 282 284 291 296 289
251 252 252 255 256 259 262 262 261 259 260 262 272 277 281 285 288 290 293 293 296 300 302 305 305 305 303 293 287 295 302 305 310 311 311 311 308 298 294 290 288 288 287 282
248 254 254 254 254 252 253 251 247 254 262 269 273 277 283 286 288 290 292 294 298 299 301 303 303 305 300 291 290 296 305 313 314 314 309 311 314 313 313 306 298 294 288 277
248 251 250 245 243 238 237 243 253 263 270 276 281 284 284 285 288 291 294 299 299 300 300 300 304 303 298 288 283 295 307 313 314 319 321 325 328 336 342 347 353 357 353 316
234 233 227 229 231 236 244 253 263 272 279 283 283 283 283 287 291 294 297 298 297 298 299 303 305 302 290 281 291 303 310 317 326 329 332 329 332 336 339 2 19 18 39 53
217 225 235 241 244 251 264 274 278 281 281 282 283 283 287 289 292 295 296 295 295 298 301 302 301 295 276 272 291 301 313 322 333 338 335 323 334 352 343 349 10 20 2 318
240 245 250 257 268 276 277 277 278 279 280 281 284 287 290 293 295 294 293 293 295 296 296 298 291 286 258 269 288 301 310 321 340 345 348 344 340 352 9 1 348 356 20 360
Height
5785 5784 5783 5783 5782 5780 5779 5778 5777 5775 5772 5770 5766 5764 5760 5756 5753 5749 5746 5743 5739 5736 5731 5728 5724 5721 5718 5714 5709 5704 5701 5697 5692 5689 5682 5676 5672 5670 5665 5659 5657 5651 5649 5651
5777 5776 5775 5774 5772 5771 5770 5769 5768 5766 5764 5761 5759 5756 5753 5749 5746 5743 5739 5736 5731 5728 5725 5721 5717 5713 5711 5706 5702 5696 5692 5690 5684 5682 5675 5668 5665 5661 5656 5651 5646 5645 5639 5643
5768 5768 5767 5766 5764 5763 5762 5762 5759 5758 5755 5753 5751 5748 5745 5741 5738 5735 5732 5729 5724 5721 5717 5712 5710 5706 5703 5698 5693 5688 5682 5681 5675 5672 5665 5660 5657 5651 5646 5641 5636 5635 5631 5631
5760 5760 5759 5758 5756 5754 5756 5754 5752 5749 5747 5744 5742 5740 5736 5732 5730 5728 5724 5721 5716 5712 5709 5705 5701 5697 5694 5688 5683 5679 5675 5672 5666 5661 5654 5651 5648 5641 5636 5632 5631 5623 5626 5622
5753 5752 5751 5749 5749 5748 5746 5745 5744 5741 5738 5736 5733 5731 5728 5725 5722 5720 5716 5711 5708 5705 5701 5698 5693 5689 5685 5683 5675 5667 5662 5660 5657 5652 5645 5640 5637 5630 5625 5623 5620 5618 5615 5613
5743 5743 5744 5742 5741 5740 5738 5735 5734 5732 5729 5727 5724 5722 5717 5714 5713 5711 5706 5702 5698 5695 5692 5689 5685 5681 5676 5672 5666 5659 5653 5648 5644 5642 5635 5630 5627 5623 5617 5613 5610 5608 5605 5605
5731 5732 5732 5732 5731 5729 5728 5728 5726 5723 5720 5718 5715 5713 5710 5706 5704 5701 5698 5695 5691 5688 5683 5679 5673 5669 5664 5661 5654 5650 5644 5638 5632 5629 5624 5619 5614 5612 5606 5602 5600 5599 5597 5596
5720 5720 5721 5720 5722 5720 5718 5718 5716 5715 5713 5710 5706 5703 5700 5696 5693 5689 5686 5683 5680 5676 5673 5668 5665 5659 5655 5651 5645 5639 5634 5628 5620 5616 5614 5612 5607 5602 5598 5593 5592 5589 5588 5587
5711 5711 5711 5712 5712 5711 5710 5708 5706 5704 5702 5700 5696 5694 5691 5687 5683 5680 5675 5672 5668 5666 5662 5657 5654 5649 5645 5639 5635 5629 5623 5619 5614 5607 5603 5600 5597 5593 5590 5585 5583 5582 5581 5582
5699 5700 5702 5701 5701 5701 5699 5697 5695 5694 5692 5689 5686 5683 5681 5677 5673 5670 5667 5662 5659 5655 5653 5649 5645 5640 5634 5628 5622 5618 5613 5607 5603 5599 5594 5592 5589 5586 5581 5578 5579 5574 5573 5572
5686 5687 5689 5688 5689 5689 5688 5686 5683 5682 5679 5677 5675 5673 5670 5668 5664 5660 5657 5653 5649 5646 5643 5639 5634 5630 5624 5617 5610 5605 5602 5595 5593 5590 5586 5582 5578 5576 5574 5570 5567 5566 5564 5563
5673 5674 5674 5673 5675 5675 5675 5674 5671 5668 5666 5665 5663 5660 5659 5656 5652 5650 5646 5644 5641 5636 5632 5629 5623 5619 5613 5607 5601 5593 5591 5584 5582 5581 5576 5571 5566 5564 5562 5559 5558 5557 5556 5554
5661 5660 5662 5661 5662 5664 5663 5662 5659 5655 5654 5652 5651 5648 5648 5645 5641 5638 5635 5630 5629 5627 5623 5619 5614 5609 5604 5598 5592 5587 5579 5571 5570 5568 5565 5560 5556 5550 5549 5546 5546 5545 5545 5545
5648 5646 5646 5647 5648 5650 5651 5649 5645 5643 5643 5641 5639 5637 5637 5633 5631 5629 5624 5622 5619 5616 5613 5609 5604 5599 5594 5588 5583 5576 5567 5565 5562 5555 5550 5549 5543 5539 5536 5533 5532 5531 5532 5532
5633 5634 5634 5635 5635 5637 5635 5634 5634 5633 5632 5629 5627 5626 5626 5622 5621 5618 5614 5611 5608 5605 5602 5598 5594 5589 5583 5578 5572 5562 5558 5554 5550 5546 5538 5535 5532 5527 5522 5520 5519 5517 5517 5518
5615 5618 5618 5621 5622 5622 5622 5621 5623 5621 5617 5615 5616 5615 5613 5611 5609 5606 5602 5601 5597 5594 5591 5588 5585 5580 5575 5569 5562 5551 5545 5540 5534 5533 5527 5523 5520 5517 5512 5509 5506 5505 5504 5503
5600 5601 5604 5606 5605 5605 5609 5610 5609 5607 5606 5603 5603 5602 5601 5601 5596 5593 5592 5589 5587 5583 5579 5576 5573 5569 5565 5557 5551 5542 5535 5528 5520 5516 5514 5514 5506 5506 5503 5499 5498 5496 5494 5493
5584 5586 5590 5590 5592 5593 5596 5596 5596 5596 5593 5592 5591 5590 5589 5588 5585 5583 5583 5581 5578 5573 5569 5566 5562 5557 5552 5547 5539 5532 5525 5518 5512 5509 5504 5499 5498 5495 5492 5488 5486 5486 5484 5482
5568 5572 5575 5577 5580 5581 5582 5583 5585 5584 5582 5578 5578 5578 5578 5576 5574 5573 5571 5570 5567 5563 5560 5556 5552 5546 5540 5535 5528 5520 5513 5507 5504 5503 5497 5492 5489 5485 5481 5478 5476 5475 5474 5472
5556 5558 5562 5563 5566 5567 5570 5569 5571 5570 5567 5567 5568 5567 5567 5568 5566 5563 5561 5558 5556 5553 5550 5545 5540 5534 5528 5522 5516 5509 5504 5499 5495 5492 5488 5483 5479 5474 5471 5468 5466 5465 5464 5462
5544 5546 5550 5551 5553 5554 5556 5557 5559 5558 5558 5559 5559 5557 5557 5557 5557 5552 5550 5546 5544 5543 5539 5534 5529 5523 5516 5510 5504 5500 5496 5492 5487 5482 5477 5471 5468 5465 5463 5459 5456 5453 5452 5451
5532 5535 5536 5539 5542 5542 5545 5545 5546 5547 5550 5550 5549 5549 5547 5547 5545 5542 5540 5537 5534 5531 5527 5522 5518 5513 5506 5500 5496 5493 5490 5486 5481 5475 5471 5466 5460 5457 5452 5448 5444 5441 5438 5436
5522 5525 5526 5528 5529 5530 5534 5535 5536 5539 5541 5541 5541 5539 5537 5536 5535 5533 5530 5526 5523 5519 5516 5511 5507 5501 5496 5492 5491 5487 5484 5479 5474 5470 5465 5459 5454 5449 5443 5436 5431 5426 5422 5419
5512 5514 5516 5518 5521 5523 5524 5526 5529 5532 5533 5533 5531 5529 5528 5526 5525 5521 5518 5514 5511 5508 5505 5501 5496 5492 5489 5487 5485 5483 5479 5475 5470 5465 5460 5454 5450 5444 5438 5433 5428 5422 5417 5416
5504 5507 5510 5512 5514 5515 5517 5520 5521 5523 5523 5522 5521 5520 5519 5515 5512 5509 5505 5503 5500 5498 5494 5490 5486 5484 5482 5481 5479 5477 5474 5470 5465 5461 5456 5451 5447 5442 5438 5434 5431 5427 5424 5424
5501 5503 5505 5506 5508 5509 5510 5511 5513 5514 5513 5512 5512 5510 5506 5503 5500 5498 5495 5492 5489 5486 5483 5480 5478 5477 5476 5476 5475 5473 5470 5467 5463 5458 5453 5449 5445 5442 5438 5436 5433 5431 5429 5428
5496 5497 5498 5499 5500 5501 5503 5504 5505 5505 5504 5502 5499 5497 5493 5491 5489 5486 5484 5481 5479 5476 5473 5472 5471 5470 5470 5471 5471 5469 5467 5464 5461 5457 5452 5448 5444 5442 5438 5437 5435 5433 5431 5430